Location: *
(18.5200°S, 46.4500°E)
Time: 19:58:52
(UTC+00:00)

Cosmos 1371 Rocket - Pass Details

Date: 19 July 2019
Orbit: 754 x 790 km, 74.0° (Epoch: 17 August)

Event Time Altitude Azimuth Distance (km) Brightness Sun altitude
Rises 15:28:14 0° 351° (N) 3,250 7.6 -12.7°
Reaches altitude 10° 15:30:36 10° 353° (N) 2,332 6.8 -13.2°
Maximum altitude 15:35:53 75° 77° (ENE) 820 4.0 -14.4°
Drops below altitude 10° 15:41:17 10° 162° (SSE) 2,367 6.2 -15.6°
Enters shadow 15:42:10 - 163° (SSE) 2,713 6.5 -15.8°
